******************************************************************************* JPL/HORIZONS (2023 AV) 2025-Dec-12 17:56:11 Rec #:50530840 (+COV) Soln.date: 2023-Jan-14_07:12:08 # obs: 19 (span: n.a.) IAU76/J2000 helio. ecliptic osc. elements (au, days, deg., period=Julian yrs): EPOCH= 2459957.5 ! 2023-Jan-13.00 (TDB) Residual RMS= .23388 EC= .4018150152123399 QR= .6800817330074521 TP= 2459897.4504743619 OM= 112.0343068461702 W= 265.6154497934373 IN= 10.78391865233117 A= 1.136908732754071 MA= 48.82308876866025 ADIST= 1.59373573250069 PER= 1.21226 N= .813047035 ANGMOM= .016796057 DAN= .98356 DDN= .92494 L= 17.5712482 B= -10.7519821 MOID= 1.837E-5 TP= 2022-Nov-13.9504743619 Asteroid physical parameters (km, seconds, rotational period in hours): GM= n.a. RAD= n.a. ROTPER= n.a. H= 30.66 G= .150 B-V= n.a. ALBEDO= n.a. STYP= n.a. ASTEROID comments: 1: soln ref.= JPL#1, OCC=7 2: source=ORB ******************************************************************************* ******************************************************************************* Ephemeris / WWW_USER Fri Dec 12 17:56:11 2025 Pasadena, USA / Horizons ******************************************************************************* Target body name: (2023 AV) {source: JPL#1} Center body name: Earth (399) {source: DE441} Center-site name: GEOCENTRIC ******************************************************************************* Start time : A.D. 2022-Nov-03 00:00:00.0000 UT Stop time : A.D. 2022-Nov-04 00:00:00.0000 UT Step-size : 180 minutes ******************************************************************************* Target pole/equ : undefined Target radii : undefined Center geodetic : 0.0, 0.0, -6378.137 {E-lon(deg),Lat(deg),Alt(km)} Center cylindric: 0.0, 0.0, 0.0 {E-lon(deg),Dxy(km),Dz(km)} Center pole/equ : ITRF93 {East-longitude positive} Center radii : 6378.137, 6378.137, 6356.752 km {Equator_a, b, pole_c} Target primary : Sun Vis. interferer : MOON (R_eq= 1737.400) km {source: DE441} Rel. light bend : Sun {source: DE441} Rel. lght bnd GM: 1.3271E+11 km^3/s^2 Small-body perts: Yes {source: SB441-N16} Atmos refraction: NO (AIRLESS) RA format : HMS Time format : CAL Calendar mode : Mixed Julian/Gregorian EOP file : eop.251212.p260310 EOP coverage : DATA-BASED 1962-JAN-20 TO 2025-DEC-12. PREDICTS-> 2026-MAR-09 Units conversion: 1 au= 149597870.700 km, c= 299792.458 km/s, 1 day= 86400.0 s Table cut-offs 1: Elevation (-90.0deg=NO ),Airmass (>38.000=NO), Daylight (NO ) Table cut-offs 2: Solar elongation ( 0.0,180.0=NO ),Local Hour Angle( 0.0=NO ) Table cut-offs 3: RA/DEC angular rate ( 0.0=NO ) ******************************************************************************* Initial IAU76/J2000 heliocentric ecliptic osculating elements (au, days, deg.): EPOCH= 2459957.5 ! 2023-Jan-13.00 (TDB) Residual RMS= .23388 EC= .4018150152123399 QR= .6800817330074521 TP= 2459897.4504743619 OM= 112.0343068461702 W= 265.6154497934373 IN= 10.78391865233117 Equivalent ICRF heliocentric cartesian coordinates (au, au/d): X=-3.717524608257241E-01 Y= 8.363282225439144E-01 Z= 3.631205977036277E-01 VX=-1.818052940674190E-02 VY=-1.081430627395674E-03 VZ= 3.013657316787198E-03 Asteroid physical parameters (km, seconds, rotational period in hours): GM= n.a. RAD= n.a. ROTPER= n.a. H= 30.66 G= .150 B-V= n.a. ALBEDO= n.a. STYP= n.a. ******************************************************************************* Date__(UT)__HR:MN r rdot ************************************************** $$SOE 2022-Nov-03 00:00 0.544349359960 -0.4726119 2022-Nov-03 03:00 0.544318343263 -0.3865612 2022-Nov-03 06:00 0.544293540416 -0.3004862 2022-Nov-03 09:00 0.544274952979 -0.2143922 2022-Nov-03 12:00 0.544262582124 -0.1282847 2022-Nov-03 15:00 0.544256428630 -0.0421692 2022-Nov-03 18:00 0.544256492885 0.0439491 2022-Nov-03 21:00 0.544262774887 0.1300645 2022-Nov-04 00:00 0.544275274239 0.2161718 $$EOE ******************************************************************************* Column meaning: TIME Times PRIOR to 1962 are UT1, a mean-solar time closely related to the prior but now-deprecated GMT. Times AFTER 1962 are in UTC, the current civil or "wall-clock" time-scale. UTC is kept within 0.9 seconds of UT1 using integer leap-seconds for 1972 and later years. Conversion from the internal Barycentric Dynamical Time (TDB) of solar system dynamics to the non-uniform civil UT time-scale requested for output has not been determined for UTC times after the next July or January 1st. Therefore, the last known leap-second is used as a constant over future intervals. Time tags refer to the UT time-scale conversion from TDB on Earth regardless of observer location within the solar system, although clock rates may differ due to the local gravity field and no analog to "UT" may be defined for that location. Any 'b' symbol in the 1st-column denotes a B.C. date. First-column blank (" ") denotes an A.D. date. CALENDAR SYSTEM Mixed calendar mode was active such that calendar dates after AD 1582-Oct-15 (if any) are in the modern Gregorian system. Dates prior to 1582-Oct-5 (if any) are in the Julian calendar system, which is automatically extended for dates prior to its adoption on 45-Jan-1 BC. The Julian calendar is useful for matching historical dates. The Gregorian calendar more accurately corresponds to the Earth's orbital motion and seasons. A "Gregorian-only" calendar mode is available if such physical events are the primary interest. NOTE: "n.a." in output means quantity "not available" at the print-time. 'r rdot' = The Sun's apparent range ("r", light-time aberrated) and range-rate ("rdot") relative to the target center, as seen by the observer. A positive "rdot" means the target center was moving away from the Sun, negative means moving toward the Sun. Units: AU and KM/S Computations by ... Solar System Dynamics Group, Horizons On-Line Ephemeris System 4800 Oak Grove Drive, Jet Propulsion Laboratory Pasadena, CA 91109 USA General site: https://ssd.jpl.nasa.gov/ Mailing list: https://ssd.jpl.nasa.gov/email_list.html System news : https://ssd.jpl.nasa.gov/horizons/news.html User Guide : https://ssd.jpl.nasa.gov/horizons/manual.html Connect : browser https://ssd.jpl.nasa.gov/horizons/app.html#/x API https://ssd-api.jpl.nasa.gov/doc/horizons.html command-line telnet ssd.jpl.nasa.gov 6775 e-mail/batch https://ssd.jpl.nasa.gov/ftp/ssd/horizons_batch.txt scripts https://ssd.jpl.nasa.gov/ftp/ssd/SCRIPTS Author : Jon.D.Giorgini@jpl.nasa.gov ******************************************************************************* !$$SOF COMMAND = '2023 AV' QUANTITIES = '19' START_TIME = '2022-Nov-03' STEP_SIZE = '3 hours' STOP_TIME = '2022-Nov-04'